SL-14 DEB, 45292

Orbit data source: Space-Track

SL-14 DEB, 45292 is space debris in LEO originally from a launch on Thu, 15 Aug 1991 UTC launched from the Plesetsk Missile And Space Complex (PKMTR). Debris objects in space refer to the collection of defunct objects orbiting the Earth. Examples of debris include non-operational satellites, rocket bodies, and fragments generated from explosions, collisions, or faulty payload assembly.

Loading next visibility...
SL-14 DEB details
Identifier
45292, 1991-056AE
Orbit
LEO
Last TLE update1 day ago
Origin
Flag of CISRosgidromet (CIS)
ManufacturerUnknown
MissionSpacecraft
Bus & MotorUnknown
MassUnknown
Launch date (UTC)
1991-08-15 (33 years ago)
Launch vehicleUnknown
Launch site
Plesetsk Missile And Space Complex (PKMTR)
Object type
Payload
Rocket body
Debris
Shape & HBRUnknown
Radar Cross SectionSmall (<0.1 m²)

Expand to show TLE details & history

TLE from 1 day ago
0 SL-14 DEB
1 45292U 91056AE  24360.42550032  .00009259  00000-0  17063-1 0  9992
2 45292  82.6287 146.1337 0108944 158.6034 201.9707 13.37487209235375
Epoch: 2024-12-25T10:12Z
Definitive object data (Epoch: 2024-12-25T10:12:43.227Z)
Latitude-0.00009°
Longitude-101.46585°
Altitude1,197.372 km
Speed7.218 km/s
True Right ascension09h 44m 32s
True Declination0° 00' 00"
Sunlit
Object was in full shadow at TLE epoch
Visualization TLE readout
Latitude80.59634°
Longitude26.81589°
Altitude1,090.625 km
Speed7.334 km/s
Apparent Right ascension20h 48m 01s
Apparent Declination29° 24' 39"
Sunlit
Object is in daylight
Visualization observer readout
Local Sidereal Time09:23:04
Azimuth8.131° NNE
Elevation-20.196°
Doppler factor1
Orbital elements
Apogee altitude1,197.509 km
Perigee altitude1,034.224 km
Semi-major axis7,494.004 km
Eccentricity0.0108944
Inclination82.6287°
RAAN146.1337°
Arg. of periapsis158.6034°
True anomaly201.50946°
Mean anomaly201.9707°
Eccentric anomaly201.7395°
Mean motion3.34559 °/min
BSTAR0.017063
Orbital period107.6 mins
Loading maneuver chart data...
Loading historical data...
Loading historical data...
Loading historical data...
Loading historical data...
Loading historical data...
Loading historical data...
Loading historical data...

SL-14 DEB Visibility forecast

Observer location: undefined°, undefined

Span
Click to sort rows by Start time (UTC) header in descending order
Start Az.
Max El. time (UTC)
Max El. Az.
Max El.
End time (UTC)
End Az.
13 mins2024-12-26 11:26:57.581Z215.216° SW2024-12-26 11:33:57.581Z292.503° NW33.423°2024-12-26 11:39:57.581Z353.136° N
10 mins2024-12-26 20:55:57.581Z15.253° NNE2024-12-26 21:00:57.581Z82.061° E30.792°2024-12-26 21:05:57.581Z138.42° SSE
9 mins2024-12-26 22:44:57.581Z324.327° NNW2024-12-26 22:48:57.581Z272.999° WNW28.546°2024-12-26 22:53:57.581Z215.051° SW
7 mins2024-12-27 09:02:57.581Z109.608° ESE2024-12-27 09:05:57.581Z79.775° E17.982°2024-12-27 09:09:57.581Z43.076° NE
|